<?xml version="1.0" encoding="UTF-8" standalone="no" ?>
<gpx xmlns="http://www.topografix.com/GPX/1/1" xmlns:xsi="http://www.w3.org/2001/XMLSchema-instance" xsi:schemaLocation="http://www.topografix.com/GPX/1/1 http://www.topografix.com/GPX/1/1/gpx.xsd" version="1.1" creator="VisuGPX - https://www.visugpx.com">
  <metadata>
    <name>Col de la croix Saint Robert</name>
    <desc><![CDATA[620m de D  au départ de la Bourboule pour rejoindre le plus au col routier du massif du Sancy.]]></desc>
  </metadata>
  <trk>
    <name><![CDATA[Col de la croix Saint Robert_1]]></name>
    <cmt><![CDATA[Col de la Croix Saint Robert]]></cmt>
    <trkseg>
      <trkpt lat="45.58763" lon="2.73778">
        <ele>852</ele>
        <time>2011-10-31T09:00:37Z</time>
      </trkpt>
      <trkpt lat="45.58808" lon="2.74059">
        <ele>859</ele>
        <time>2011-10-31T09:00:37Z</time>
      </trkpt>
      <trkpt lat="45.58878" lon="2.74303">
        <ele>859</ele>
        <time>2011-10-31T09:00:37Z</time>
      </trkpt>
      <trkpt lat="45.5899" lon="2.74488">
        <ele>859</ele>
        <time>2011-10-31T09:00:37Z</time>
      </trkpt>
      <trkpt lat="45.59041" lon="2.74756">
        <ele>866</ele>
        <time>2011-10-31T09:00:37Z</time>
      </trkpt>
      <trkpt lat="45.59103" lon="2.75028">
        <ele>871</ele>
        <time>2011-10-31T09:00:37Z</time>
      </trkpt>
      <trkpt lat="45.59229" lon="2.75185">
        <ele>878</ele>
        <time>2011-10-31T09:00:37Z</time>
      </trkpt>
      <trkpt lat="45.59337" lon="2.75402">
        <ele>893</ele>
        <time>2011-10-31T09:00:37Z</time>
      </trkpt>
      <trkpt lat="45.59386" lon="2.7568">
        <ele>897</ele>
        <time>2011-10-31T09:00:37Z</time>
      </trkpt>
      <trkpt lat="45.59355" lon="2.75938">
        <ele>898</ele>
        <time>2011-10-31T09:00:37Z</time>
      </trkpt>
      <trkpt lat="45.59396" lon="2.76175">
        <ele>907</ele>
        <time>2011-10-31T09:00:37Z</time>
      </trkpt>
      <trkpt lat="45.59447" lon="2.76401">
        <ele>925</ele>
        <time>2011-10-31T09:00:37Z</time>
      </trkpt>
      <trkpt lat="45.5942" lon="2.76571">
        <ele>937</ele>
        <time>2011-10-31T09:00:37Z</time>
      </trkpt>
      <trkpt lat="45.59314" lon="2.76692">
        <ele>938</ele>
        <time>2011-10-31T09:00:37Z</time>
      </trkpt>
      <trkpt lat="45.592" lon="2.76881">
        <ele>928</ele>
        <time>2011-10-31T09:00:37Z</time>
      </trkpt>
      <trkpt lat="45.59144" lon="2.77119">
        <ele>927</ele>
        <time>2011-10-31T09:00:37Z</time>
      </trkpt>
      <trkpt lat="45.59121" lon="2.7736">
        <ele>939</ele>
        <time>2011-10-31T09:00:37Z</time>
      </trkpt>
      <trkpt lat="45.59092" lon="2.77563">
        <ele>950</ele>
        <time>2011-10-31T09:00:37Z</time>
      </trkpt>
      <trkpt lat="45.58952" lon="2.77675">
        <ele>947</ele>
        <time>2011-10-31T09:00:37Z</time>
      </trkpt>
      <trkpt lat="45.58816" lon="2.77811">
        <ele>936</ele>
        <time>2011-10-31T09:00:37Z</time>
      </trkpt>
      <trkpt lat="45.58795" lon="2.78048">
        <ele>943</ele>
        <time>2011-10-31T09:00:37Z</time>
      </trkpt>
      <trkpt lat="45.58737" lon="2.78284">
        <ele>943</ele>
        <time>2011-10-31T09:00:37Z</time>
      </trkpt>
      <trkpt lat="45.5878" lon="2.78503">
        <ele>965</ele>
        <time>2011-10-31T09:00:37Z</time>
      </trkpt>
      <trkpt lat="45.58784" lon="2.78726">
        <ele>967</ele>
        <time>2011-10-31T09:00:37Z</time>
      </trkpt>
      <trkpt lat="45.58792" lon="2.78988">
        <ele>972</ele>
        <time>2011-10-31T09:00:37Z</time>
      </trkpt>
      <trkpt lat="45.58821" lon="2.79244">
        <ele>975</ele>
        <time>2011-10-31T09:00:37Z</time>
      </trkpt>
      <trkpt lat="45.58745" lon="2.79466">
        <ele>971</ele>
        <time>2011-10-31T09:00:37Z</time>
      </trkpt>
      <trkpt lat="45.58707" lon="2.7971">
        <ele>975</ele>
        <time>2011-10-31T09:00:37Z</time>
      </trkpt>
      <trkpt lat="45.58682" lon="2.79948">
        <ele>986</ele>
        <time>2011-10-31T09:00:37Z</time>
      </trkpt>
      <trkpt lat="45.5856" lon="2.80124">
        <ele>991</ele>
        <time>2011-10-31T09:00:37Z</time>
      </trkpt>
      <trkpt lat="45.58412" lon="2.80257">
        <ele>993</ele>
        <time>2011-10-31T09:00:37Z</time>
      </trkpt>
      <trkpt lat="45.58278" lon="2.80407">
        <ele>1002</ele>
        <time>2011-10-31T09:00:37Z</time>
      </trkpt>
      <trkpt lat="45.58164" lon="2.80562">
        <ele>1011</ele>
        <time>2011-10-31T09:00:37Z</time>
      </trkpt>
      <trkpt lat="45.58019" lon="2.80666">
        <ele>1017</ele>
        <time>2011-10-31T09:00:37Z</time>
      </trkpt>
      <trkpt lat="45.57857" lon="2.80754">
        <ele>1026</ele>
        <time>2011-10-31T09:00:37Z</time>
      </trkpt>
      <trkpt lat="45.57729" lon="2.80905">
        <ele>1034</ele>
        <time>2011-10-31T09:00:37Z</time>
      </trkpt>
      <trkpt lat="45.57649" lon="2.80793">
        <ele>1026</ele>
        <time>2011-10-31T09:00:37Z</time>
      </trkpt>
      <trkpt lat="45.57581" lon="2.8058">
        <ele>1026</ele>
        <time>2011-10-31T09:00:37Z</time>
      </trkpt>
      <trkpt lat="45.57506" lon="2.8054">
        <ele>1033</ele>
        <time>2011-10-31T09:00:37Z</time>
      </trkpt>
      <trkpt lat="45.5737" lon="2.80701">
        <ele>1045</ele>
        <time>2011-10-31T09:00:37Z</time>
      </trkpt>
      <trkpt lat="45.57234" lon="2.80861">
        <ele>1053</ele>
        <time>2011-10-31T09:00:37Z</time>
      </trkpt>
      <trkpt lat="45.57132" lon="2.81017">
        <ele>1053</ele>
        <time>2011-10-31T09:00:37Z</time>
      </trkpt>
      <trkpt lat="45.5697" lon="2.81067">
        <ele>1061</ele>
        <time>2011-10-31T09:00:37Z</time>
      </trkpt>
      <trkpt lat="45.56921" lon="2.81119">
        <ele>1061</ele>
        <time>2011-10-31T09:00:37Z</time>
      </trkpt>
      <trkpt lat="45.5679" lon="2.81211">
        <ele>1074</ele>
        <time>2011-10-31T09:00:37Z</time>
      </trkpt>
      <trkpt lat="45.56769" lon="2.81356">
        <ele>1092</ele>
        <time>2011-10-31T09:00:37Z</time>
      </trkpt>
      <trkpt lat="45.56871" lon="2.8145">
        <ele>1109</ele>
        <time>2011-10-31T09:00:37Z</time>
      </trkpt>
      <trkpt lat="45.56865" lon="2.81494">
        <ele>1114</ele>
        <time>2011-10-31T09:00:37Z</time>
      </trkpt>
      <trkpt lat="45.57035" lon="2.81494">
        <ele>1130</ele>
        <time>2011-10-31T09:00:37Z</time>
      </trkpt>
      <trkpt lat="45.57202" lon="2.81456">
        <ele>1151</ele>
        <time>2011-10-31T09:00:37Z</time>
      </trkpt>
      <trkpt lat="45.57373" lon="2.81408">
        <ele>1156</ele>
        <time>2011-10-31T09:00:37Z</time>
      </trkpt>
      <trkpt lat="45.57545" lon="2.81397">
        <ele>1178</ele>
        <time>2011-10-31T09:00:37Z</time>
      </trkpt>
      <trkpt lat="45.57688" lon="2.8128">
        <ele>1187</ele>
        <time>2011-10-31T09:00:37Z</time>
      </trkpt>
      <trkpt lat="45.57852" lon="2.81219">
        <ele>1197</ele>
        <time>2011-10-31T09:00:37Z</time>
      </trkpt>
      <trkpt lat="45.5803" lon="2.8123">
        <ele>1215</ele>
        <time>2011-10-31T09:00:37Z</time>
      </trkpt>
      <trkpt lat="45.5791" lon="2.8137">
        <ele>1228</ele>
        <time>2011-10-31T09:00:37Z</time>
      </trkpt>
      <trkpt lat="45.57777" lon="2.81515">
        <ele>1240</ele>
        <time>2011-10-31T09:00:37Z</time>
      </trkpt>
      <trkpt lat="45.57683" lon="2.81717">
        <ele>1253</ele>
        <time>2011-10-31T09:00:37Z</time>
      </trkpt>
      <trkpt lat="45.57527" lon="2.81785">
        <ele>1262</ele>
        <time>2011-10-31T09:00:37Z</time>
      </trkpt>
      <trkpt lat="45.57356" lon="2.81792">
        <ele>1270</ele>
        <time>2011-10-31T09:00:37Z</time>
      </trkpt>
      <trkpt lat="45.57185" lon="2.81815">
        <ele>1281</ele>
        <time>2011-10-31T09:00:37Z</time>
      </trkpt>
      <trkpt lat="45.57192" lon="2.81943">
        <ele>1297</ele>
        <time>2011-10-31T09:00:37Z</time>
      </trkpt>
      <trkpt lat="45.57281" lon="2.82149">
        <ele>1305</ele>
        <time>2011-10-31T09:00:37Z</time>
      </trkpt>
      <trkpt lat="45.57249" lon="2.82255">
        <ele>1324</ele>
        <time>2011-10-31T09:00:37Z</time>
      </trkpt>
      <trkpt lat="45.57149" lon="2.82066">
        <ele>1328</ele>
        <time>2011-10-31T09:00:37Z</time>
      </trkpt>
      <trkpt lat="45.57067" lon="2.82107">
        <ele>1342</ele>
        <time>2011-10-31T09:00:37Z</time>
      </trkpt>
      <trkpt lat="45.57031" lon="2.82233">
        <ele>1356</ele>
        <time>2011-10-31T09:00:37Z</time>
      </trkpt>
      <trkpt lat="45.56877" lon="2.82134">
        <ele>1364</ele>
        <time>2011-10-31T09:00:37Z</time>
      </trkpt>
      <trkpt lat="45.56717" lon="2.82177">
        <ele>1373</ele>
        <time>2011-10-31T09:00:37Z</time>
      </trkpt>
      <trkpt lat="45.56597" lon="2.82354">
        <ele>1395</ele>
        <time>2011-10-31T09:00:37Z</time>
      </trkpt>
      <trkpt lat="45.56492" lon="2.82549">
        <ele>1398</ele>
        <time>2011-10-31T09:00:37Z</time>
      </trkpt>
      <trkpt lat="45.56447" lon="2.82789">
        <ele>1417</ele>
        <time>2011-10-31T09:00:37Z</time>
      </trkpt>
      <trkpt lat="45.56407" lon="2.83021">
        <ele>1433</ele>
        <time>2011-10-31T09:00:37Z</time>
      </trkpt>
      <trkpt lat="45.56394" lon="2.83245">
        <ele>1442</ele>
        <time>2011-10-31T09:00:37Z</time>
      </trkpt>
      <trkpt lat="45.56404" lon="2.83481">
        <ele>1447</ele>
        <time>2011-10-31T09:00:37Z</time>
      </trkpt>
      <trkpt lat="45.5639" lon="2.83706">
        <ele>1447</ele>
        <time>2011-10-31T09:00:37Z</time>
      </trkpt>
      <trkpt lat="45.56261" lon="2.83829">
        <ele>1447</ele>
        <time>2011-10-31T09:00:37Z</time>
      </trkpt>
      <trkpt lat="45.56349" lon="2.83771">
        <ele>1447</ele>
        <time>2011-10-31T09:00:37Z</time>
      </trkpt>
      <trkpt lat="45.56411" lon="2.83568">
        <ele>1448</ele>
        <time>2011-10-31T09:00:37Z</time>
      </trkpt>
      <trkpt lat="45.56404" lon="2.83347">
        <ele>1445</ele>
        <time>2011-10-31T09:00:37Z</time>
      </trkpt>
      <trkpt lat="45.56378" lon="2.83127">
        <ele>1439</ele>
        <time>2011-10-31T09:00:37Z</time>
      </trkpt>
      <trkpt lat="45.56441" lon="2.82922">
        <ele>1427</ele>
        <time>2011-10-31T09:00:37Z</time>
      </trkpt>
      <trkpt lat="45.56459" lon="2.82703">
        <ele>1412</ele>
        <time>2011-10-31T09:00:37Z</time>
      </trkpt>
      <trkpt lat="45.56513" lon="2.82491">
        <ele>1401</ele>
        <time>2011-10-31T09:00:37Z</time>
      </trkpt>
      <trkpt lat="45.56616" lon="2.82326">
        <ele>1383</ele>
        <time>2011-10-31T09:00:37Z</time>
      </trkpt>
      <trkpt lat="45.56732" lon="2.82163">
        <ele>1366</ele>
        <time>2011-10-31T09:00:37Z</time>
      </trkpt>
      <trkpt lat="45.56874" lon="2.82135">
        <ele>1364</ele>
        <time>2011-10-31T09:00:37Z</time>
      </trkpt>
      <trkpt lat="45.57017" lon="2.82229">
        <ele>1357</ele>
        <time>2011-10-31T09:00:37Z</time>
      </trkpt>
      <trkpt lat="45.57092" lon="2.82159">
        <ele>1341</ele>
        <time>2011-10-31T09:00:37Z</time>
      </trkpt>
      <trkpt lat="45.57108" lon="2.82027">
        <ele>1329</ele>
        <time>2011-10-31T09:00:37Z</time>
      </trkpt>
      <trkpt lat="45.57234" lon="2.82172">
        <ele>1322</ele>
        <time>2011-10-31T09:00:37Z</time>
      </trkpt>
      <trkpt lat="45.57317" lon="2.82251">
        <ele>1313</ele>
        <time>2011-10-31T09:00:37Z</time>
      </trkpt>
      <trkpt lat="45.5725" lon="2.8205">
        <ele>1309</ele>
        <time>2011-10-31T09:00:37Z</time>
      </trkpt>
      <trkpt lat="45.57145" lon="2.81899">
        <ele>1297</ele>
        <time>2011-10-31T09:00:37Z</time>
      </trkpt>
      <trkpt lat="45.57228" lon="2.81826">
        <ele>1280</ele>
        <time>2011-10-31T09:00:37Z</time>
      </trkpt>
      <trkpt lat="45.5738" lon="2.81776">
        <ele>1270</ele>
        <time>2011-10-31T09:00:37Z</time>
      </trkpt>
      <trkpt lat="45.57522" lon="2.81799">
        <ele>1261</ele>
        <time>2011-10-31T09:00:37Z</time>
      </trkpt>
      <trkpt lat="45.57659" lon="2.81754">
        <ele>1257</ele>
        <time>2011-10-31T09:00:37Z</time>
      </trkpt>
      <trkpt lat="45.5776" lon="2.81574">
        <ele>1243</ele>
        <time>2011-10-31T09:00:37Z</time>
      </trkpt>
      <trkpt lat="45.57872" lon="2.8142">
        <ele>1230</ele>
        <time>2011-10-31T09:00:37Z</time>
      </trkpt>
      <trkpt lat="45.58005" lon="2.81301">
        <ele>1220</ele>
        <time>2011-10-31T09:00:37Z</time>
      </trkpt>
      <trkpt lat="45.57948" lon="2.81217">
        <ele>1206</ele>
        <time>2011-10-31T09:00:37Z</time>
      </trkpt>
      <trkpt lat="45.57796" lon="2.81235">
        <ele>1189</ele>
        <time>2011-10-31T09:00:37Z</time>
      </trkpt>
      <trkpt lat="45.5766" lon="2.81328">
        <ele>1184</ele>
        <time>2011-10-31T09:00:37Z</time>
      </trkpt>
      <trkpt lat="45.57521" lon="2.81399">
        <ele>1178</ele>
        <time>2011-10-31T09:00:37Z</time>
      </trkpt>
      <trkpt lat="45.5736" lon="2.81413">
        <ele>1155</ele>
        <time>2011-10-31T09:00:37Z</time>
      </trkpt>
      <trkpt lat="45.57213" lon="2.81464">
        <ele>1153</ele>
        <time>2011-10-31T09:00:37Z</time>
      </trkpt>
      <trkpt lat="45.5705" lon="2.81491">
        <ele>1132</ele>
        <time>2011-10-31T09:00:37Z</time>
      </trkpt>
      <trkpt lat="45.56894" lon="2.81483">
        <ele>1115</ele>
        <time>2011-10-31T09:00:37Z</time>
      </trkpt>
      <trkpt lat="45.56829" lon="2.81438">
        <ele>1106</ele>
        <time>2011-10-31T09:00:37Z</time>
      </trkpt>
      <trkpt lat="45.56821" lon="2.81392">
        <ele>1095</ele>
        <time>2011-10-31T09:00:37Z</time>
      </trkpt>
      <trkpt lat="45.56851" lon="2.81313">
        <ele>1080</ele>
        <time>2011-10-31T09:00:37Z</time>
      </trkpt>
      <trkpt lat="45.57011" lon="2.8131">
        <ele>1072</ele>
        <time>2011-10-31T09:00:37Z</time>
      </trkpt>
      <trkpt lat="45.57158" lon="2.8121">
        <ele>1060</ele>
        <time>2011-10-31T09:00:37Z</time>
      </trkpt>
      <trkpt lat="45.57302" lon="2.81118">
        <ele>1054</ele>
        <time>2011-10-31T09:00:37Z</time>
      </trkpt>
      <trkpt lat="45.57454" lon="2.81042">
        <ele>1047</ele>
        <time>2011-10-31T09:00:37Z</time>
      </trkpt>
      <trkpt lat="45.57608" lon="2.80978">
        <ele>1042</ele>
        <time>2011-10-31T09:00:37Z</time>
      </trkpt>
      <trkpt lat="45.57746" lon="2.80871">
        <ele>1032</ele>
        <time>2011-10-31T09:00:37Z</time>
      </trkpt>
      <trkpt lat="45.57874" lon="2.80741">
        <ele>1020</ele>
        <time>2011-10-31T09:00:37Z</time>
      </trkpt>
      <trkpt lat="45.58024" lon="2.80663">
        <ele>1017</ele>
        <time>2011-10-31T09:00:37Z</time>
      </trkpt>
      <trkpt lat="45.58165" lon="2.80553">
        <ele>1010</ele>
        <time>2011-10-31T09:00:37Z</time>
      </trkpt>
      <trkpt lat="45.5828" lon="2.80409">
        <ele>1002</ele>
        <time>2011-10-31T09:00:37Z</time>
      </trkpt>
      <trkpt lat="45.58399" lon="2.80275">
        <ele>996</ele>
        <time>2011-10-31T09:00:37Z</time>
      </trkpt>
      <trkpt lat="45.58536" lon="2.80152">
        <ele>992</ele>
        <time>2011-10-31T09:00:37Z</time>
      </trkpt>
      <trkpt lat="45.58651" lon="2.79992">
        <ele>986</ele>
        <time>2011-10-31T09:00:37Z</time>
      </trkpt>
      <trkpt lat="45.58716" lon="2.79801">
        <ele>978</ele>
        <time>2011-10-31T09:00:37Z</time>
      </trkpt>
      <trkpt lat="45.58724" lon="2.79582">
        <ele>973</ele>
        <time>2011-10-31T09:00:37Z</time>
      </trkpt>
      <trkpt lat="45.58744" lon="2.79476">
        <ele>971</ele>
        <time>2011-10-31T09:00:37Z</time>
      </trkpt>
      <trkpt lat="45.58821" lon="2.79287">
        <ele>976</ele>
        <time>2011-10-31T09:00:37Z</time>
      </trkpt>
      <trkpt lat="45.58811" lon="2.79071">
        <ele>976</ele>
        <time>2011-10-31T09:00:37Z</time>
      </trkpt>
      <trkpt lat="45.58791" lon="2.7885">
        <ele>967</ele>
        <time>2011-10-31T09:00:37Z</time>
      </trkpt>
      <trkpt lat="45.58804" lon="2.78632">
        <ele>968</ele>
        <time>2011-10-31T09:00:37Z</time>
      </trkpt>
      <trkpt lat="45.58742" lon="2.78449">
        <ele>952</ele>
        <time>2011-10-31T09:00:37Z</time>
      </trkpt>
      <trkpt lat="45.58759" lon="2.7823">
        <ele>947</ele>
        <time>2011-10-31T09:00:37Z</time>
      </trkpt>
      <trkpt lat="45.58807" lon="2.78018">
        <ele>945</ele>
        <time>2011-10-31T09:00:37Z</time>
      </trkpt>
      <trkpt lat="45.58819" lon="2.77798">
        <ele>935</ele>
        <time>2011-10-31T09:00:37Z</time>
      </trkpt>
      <trkpt lat="45.58951" lon="2.77681">
        <ele>947</ele>
        <time>2011-10-31T09:00:37Z</time>
      </trkpt>
      <trkpt lat="45.59086" lon="2.7758">
        <ele>946</ele>
        <time>2011-10-31T09:00:37Z</time>
      </trkpt>
      <trkpt lat="45.59122" lon="2.77372">
        <ele>940</ele>
        <time>2011-10-31T09:00:37Z</time>
      </trkpt>
      <trkpt lat="45.59142" lon="2.77149">
        <ele>929</ele>
        <time>2011-10-31T09:00:37Z</time>
      </trkpt>
      <trkpt lat="45.59182" lon="2.76935">
        <ele>933</ele>
        <time>2011-10-31T09:00:37Z</time>
      </trkpt>
      <trkpt lat="45.59265" lon="2.76749">
        <ele>932</ele>
        <time>2011-10-31T09:00:37Z</time>
      </trkpt>
      <trkpt lat="45.59385" lon="2.76601">
        <ele>939</ele>
        <time>2011-10-31T09:00:37Z</time>
      </trkpt>
      <trkpt lat="45.59449" lon="2.76412">
        <ele>925</ele>
        <time>2011-10-31T09:00:37Z</time>
      </trkpt>
      <trkpt lat="45.5944" lon="2.76209">
        <ele>916</ele>
        <time>2011-10-31T09:00:37Z</time>
      </trkpt>
      <trkpt lat="45.59355" lon="2.76045">
        <ele>902</ele>
        <time>2011-10-31T09:00:37Z</time>
      </trkpt>
      <trkpt lat="45.59391" lon="2.75831">
        <ele>897</ele>
        <time>2011-10-31T09:00:37Z</time>
      </trkpt>
      <trkpt lat="45.5938" lon="2.75615">
        <ele>898</ele>
        <time>2011-10-31T09:00:37Z</time>
      </trkpt>
      <trkpt lat="45.5934" lon="2.75401">
        <ele>894</ele>
        <time>2011-10-31T09:00:37Z</time>
      </trkpt>
      <trkpt lat="45.59272" lon="2.7521">
        <ele>886</ele>
        <time>2011-10-31T09:00:37Z</time>
      </trkpt>
      <trkpt lat="45.59147" lon="2.75084">
        <ele>873</ele>
        <time>2011-10-31T09:00:37Z</time>
      </trkpt>
      <trkpt lat="45.59084" lon="2.74918">
        <ele>868</ele>
        <time>2011-10-31T09:00:37Z</time>
      </trkpt>
      <trkpt lat="45.59035" lon="2.74705">
        <ele>867</ele>
        <time>2011-10-31T09:00:37Z</time>
      </trkpt>
      <trkpt lat="45.58994" lon="2.74487">
        <ele>859</ele>
        <time>2011-10-31T09:00:37Z</time>
      </trkpt>
      <trkpt lat="45.58929" lon="2.74293">
        <ele>859</ele>
        <time>2011-10-31T09:00:37Z</time>
      </trkpt>
      <trkpt lat="45.58893" lon="2.74071">
        <ele>856</ele>
        <time>2011-10-31T09:00:37Z</time>
      </trkpt>
      <trkpt lat="45.58864" lon="2.73862">
        <ele>856</ele>
        <time>2011-10-31T09:00:37Z</time>
      </trkpt>
      <trkpt lat="45.58792" lon="2.73729">
        <ele>851</ele>
        <time>2011-10-31T09:00:37Z</time>
      </trkpt>
      <trkpt lat="45.58747" lon="2.73728">
        <ele>854</ele>
        <time>2011-10-31T09:00:37Z</time>
      </trkpt>
      <trkpt lat="45.58743" lon="2.73728">
        <ele>854</ele>
        <time>2011-10-31T09:00:37Z</time>
      </trkpt>
      <trkpt lat="45.58741" lon="2.73728">
        <ele>855</ele>
        <time>2011-10-31T09:00:37Z</time>
      </trkpt>
      <trkpt lat="45.58738" lon="2.73729">
        <ele>855</ele>
        <time>2011-10-31T09:00:37Z</time>
      </trkpt>
      <trkpt lat="45.58735" lon="2.73728">
        <ele>855</ele>
        <time>2011-10-31T09:00:37Z</time>
      </trkpt>
      <trkpt lat="45.58732" lon="2.73729">
        <ele>855</ele>
        <time>2011-10-31T09:00:37Z</time>
      </trkpt>
      <trkpt lat="45.58729" lon="2.73729">
        <ele>855</ele>
        <time>2011-10-31T09:00:37Z</time>
      </trkpt>
      <trkpt lat="45.58726" lon="2.73729">
        <ele>855</ele>
        <time>2011-10-31T09:00:37Z</time>
      </trkpt>
      <trkpt lat="45.58723" lon="2.7373">
        <ele>855</ele>
        <time>2011-10-31T09:00:37Z</time>
      </trkpt>
      <trkpt lat="45.5872" lon="2.7373">
        <ele>856</ele>
        <time>2011-10-31T09:00:37Z</time>
      </trkpt>
      <trkpt lat="45.58717" lon="2.73731">
        <ele>856</ele>
        <time>2011-10-31T09:00:37Z</time>
      </trkpt>
      <trkpt lat="45.58715" lon="2.73732">
        <ele>856</ele>
        <time>2011-10-31T09:00:37Z</time>
      </trkpt>
      <trkpt lat="45.58712" lon="2.73732">
        <ele>856</ele>
        <time>2011-10-31T09:00:37Z</time>
      </trkpt>
      <trkpt lat="45.58709" lon="2.73732">
        <ele>856</ele>
        <time>2011-10-31T09:00:37Z</time>
      </trkpt>
      <trkpt lat="45.58706" lon="2.73732">
        <ele>857</ele>
        <time>2011-10-31T09:00:37Z</time>
      </trkpt>
      <trkpt lat="45.58703" lon="2.73733">
        <ele>857</ele>
        <time>2011-10-31T09:00:37Z</time>
      </trkpt>
      <trkpt lat="45.58701" lon="2.73732">
        <ele>857</ele>
        <time>2011-10-31T09:00:37Z</time>
      </trkpt>
      <trkpt lat="45.58698" lon="2.73733">
        <ele>857</ele>
        <time>2011-10-31T09:00:37Z</time>
      </trkpt>
      <trkpt lat="45.58695" lon="2.73733">
        <ele>857</ele>
        <time>2011-10-31T09:00:37Z</time>
      </trkpt>
      <trkpt lat="45.58693" lon="2.73732">
        <ele>857</ele>
        <time>2011-10-31T09:00:37Z</time>
      </trkpt>
      <trkpt lat="45.58691" lon="2.73734">
        <ele>857</ele>
        <time>2011-10-31T09:00:37Z</time>
      </trkpt>
      <trkpt lat="45.58691" lon="2.73732">
        <ele>857</ele>
        <time>2011-10-31T09:00:37Z</time>
      </trkpt>
      <trkpt lat="45.58698" lon="2.73727">
        <ele>857</ele>
        <time>2011-10-31T09:00:37Z</time>
      </trkpt>
    </trkseg>
  </trk>
</gpx>